Weather History for KFRG - September, 2013

Change the Weather History Date:

Thursday, September 19, 2013

  Actual Average (KISP) Record (KISP)
Temperature  
Mean Temperature 62 °F 64 °F  
Max Temperature 75 °F 73 °F 83 °F (1985)
Min Temperature 50 °F 56 °F 44 °F (1990)
Degree Days  
Heating Degree Days 4 3  
Month to date heating degree days 25  
Since 1 July heating degree days 30  
Cooling Degree Days 0 2  
Month to date cooling degree days 76  
Year to date cooling degree days 762  
Growing Degree Days 12 (Base 50)    
Moisture  
Dew Point 50 °F    
Average Humidity 68    
Maximum Humidity 93    
Minimum Humidity 33    
Precipitation  
Precipitation 0.00 in 0.11 in 0.98 in (2000)
Month to date precipitation 2.21  
Year to date precipitation 33.35  
Snow  
Snow 0.00 in 0.00 in - ()
Month to date snowfall 0.0  
Since 1 July snowfall 0.0  
Snow Depth -    
Sea Level Pressure  
Sea Level Pressure 30.14 in    
Wind  
Wind Speed 3 mph (SW)    
Max Wind Speed 16 mph    
Max Gust Speed -    
Visibility 10 miles    
Events      
T = Trace of Precipitation, MM = Missing Value Source: NWS Daily Summary

Daily Weather History Graph

Daily Weather History Graph

Search for Another Location

Airport or City:

Trip Planner

Search our weather history database for the weather conditions in past years. The results will help you decide how hot, cold, wet, or windy it might be!

Date:

Astronomy

Sep. 19, 2013 Rise Set
Actual Time 6:38 AM EDT 6:55 PM EDT
Civil Twilight 6:11 AM EDT 7:22 PM EDT
Nautical Twilight 5:38 AM EDT 7:54 PM EDT
Astronomical Twilight 5:06 AM EDT 8:27 PM EDT
Moon 6:51 PM EDT (9/19) 6:44 AM EDT (9/19)
Length of Visible Light 13h 11m
Length of Day
12h 17m
Full, 100% of the Moon is Illuminated
Sep 19
Full
Sep 26
Last Quarter
Oct 4
New
Oct 11
First Quarter
Oct 18
Full

Hourly Weather History & Observations

Time (EDT) Temp. Dew Point Humidity Pressure Visibility Wind Dir Wind Speed Gust Speed Precip Events Conditions
12:53 AM 55.0 °F 50.0 °F 83% 30.21 in 10.0 mi Calm Calm - N/A   Clear
1:53 AM 54.0 °F 50.0 °F 86% 30.20 in 10.0 mi Calm Calm - N/A   Clear
2:53 AM 52.0 °F 48.9 °F 89% 30.19 in 10.0 mi Calm Calm - N/A   Clear
3:53 AM 52.0 °F 48.9 °F 89% 30.17 in 10.0 mi Calm Calm - N/A   Clear
4:53 AM 50.0 °F 48.0 °F 93% 30.17 in 10.0 mi Calm Calm - N/A   Clear
5:53 AM 51.1 °F 48.0 °F 89% 30.18 in 10.0 mi Calm Calm - N/A   Clear
6:53 AM 50.0 °F 48.0 °F 93% 30.19 in 10.0 mi Calm Calm - N/A   Clear
7:53 AM 54.0 °F 50.0 °F 86% 30.18 in 10.0 mi West 3.5 mph - N/A   Clear
8:53 AM 61.0 °F 50.0 °F 67% 30.18 in 10.0 mi West 4.6 mph - N/A   Clear
9:53 AM 66.0 °F 46.9 °F 50% 30.18 in 10.0 mi WSW 8.1 mph - N/A   Clear
10:53 AM 69.1 °F 46.0 °F 44% 30.17 in 10.0 mi West 8.1 mph - N/A   Clear
11:53 AM 72.0 °F 44.1 °F 37% 30.16 in 10.0 mi West 6.9 mph - N/A   Clear
12:53 PM 73.9 °F 43.0 °F 33% 30.14 in 10.0 mi WSW 5.8 mph - N/A   Clear
1:53 PM 73.9 °F 48.9 °F 41% 30.12 in 10.0 mi SSW 10.4 mph - N/A   Clear
2:53 PM 73.9 °F 48.0 °F 40% 30.11 in 10.0 mi South 12.7 mph - N/A   Clear
3:53 PM 73.0 °F 48.0 °F 41% 30.10 in 10.0 mi SSW 16.1 mph - N/A   Clear
4:53 PM 71.1 °F 51.1 °F 49% 30.09 in 10.0 mi SSW 13.8 mph - N/A   Clear
5:53 PM 68.0 °F 52.0 °F 56% 30.09 in 10.0 mi SSW 10.4 mph - N/A   Clear
6:53 PM 64.9 °F 54.0 °F 68% 30.10 in 10.0 mi SSW 8.1 mph - N/A   Clear
7:53 PM 64.0 °F 55.0 °F 73% 30.10 in 10.0 mi SW 6.9 mph - N/A   Clear
8:53 PM 63.0 °F 55.9 °F 78% 30.12 in 10.0 mi SW 4.6 mph - N/A   Clear
9:53 PM 62.1 °F 55.9 °F 80% 30.11 in 10.0 mi WSW 3.5 mph - N/A   Clear
10:53 PM 62.1 °F 57.0 °F 84% 30.10 in 10.0 mi SW 3.5 mph - N/A   Clear
11:53 PM 61.0 °F 57.0 °F 87% 30.09 in 10.0 mi Calm Calm - N/A   Clear